FW0441 Weather Reports


time (UTC)temp
F
wind
direction
speed
knots
gust
knots
rain 1hr
in
rain 24hr
in
rain mn
in
humidity
%
barometer
mb
20260504160154 61 329 3.5 7.0 0.00 0.00 0.00 43 997.7
20260504150650 60 317 2.6 6.1 0.00 0.00 0.00 45 997.3
20260504150150 60 339 2.6 5.2 0.00 0.00 0.00 45 997.4
20260504141144 58 331 3.5 5.2 0.00 0.00 0.00 47 997.3
20260504140646 58 336 3.5 7.8 0.00 0.00 0.00 48 997.2
20260504140146 58 324 2.6 7.8 0.00 0.00 0.00 47 997.1
20260504130646 58 335 2.6 7.0 0.00 0.00 0.00 48 996.4
20260504130422 59 319 1.7 6.1 0.00 0.00 0.00 53 996.3
20260504130146 58 337 2.6 5.2 0.00 0.00 0.00 53 996.4
20260504120143 60 293 2.6 8.7 0.00 0.00 0.00 46 995.2
20260504110636 60 284 2.6 8.7 0.00 0.00 0.00 41 994.3
20260504110137 60 200 2.6 12.2 0.00 0.00 0.00 41 994.5
20260504100358 59 185 2.6 5.2 0.00 0.00 0.00 40 994.6
20260504090125 58 205 2.6 7.8 0.00 0.00 0.00 40 995.7
20260504081620 58 198 2.6 7.0 0.00 0.00 0.00 42 996.5
20260504081120 58 199 2.6 5.2 0.00 0.00 0.00 43 996.8
20260504080621 58 204 2.6 5.2 0.00 0.00 0.00 42 996.8
20260504080354 58 219 1.7 4.3 0.00 0.00 0.00 42 996.9
20260504070114 58 223 1.7 5.2 0.00 0.00 0.00 42 998.1
20260504060110 57 206 2.6 5.2 0.00 0.00 0.00 44 999.2
20260504050609 57 206 1.7 4.3 0.00 0.00 0.00 44 1000.3
20260504050107 57 202 1.7 5.2 0.00 0.00 0.00 44 1000.6
20260504045607 57 203 1.7 5.2 0.00 0.00 0.00 44 1000.6
20260504045107 56 252 1.7 3.5 0.00 0.00 0.00 45 1000.9
20260504044836 56 257 1.7 2.6 0.00 0.00 0.00 45 1000.7
20260504044102 56 269 1.7 2.6 0.00 0.00 0.00 47 1000.9
20260504043600 55 270 1.7 2.6 0.00 0.00 0.00 49 1001.1
20260504043101 53 277 0.9 2.6 0.00 0.00 0.00 52 1001.2
20260504042831 52 282 0.9 2.6 0.00 0.00 0.00 59 1001.3
20260504042058 51 282 0.9 2.6 0.00 0.00 0.00 61 1001.5
20260504041601 50 283 0.0 0.0 0.00 0.00 0.00 70 1001.7
20260504041557 50 282 0.0 1.7 0.00 0.00 0.00 67 1001.4
20260504040829 51 283 0.0 0.0 0.00 0.00 0.00 69 1001.6
20260504040056 51 283 0.0 0.0 0.00 0.00 0.00 69 1001.8
20260504035828 51 283 0.0 0.0 0.00 0.00 0.00 67 1002.0
20260504035329 51 283 0.0 0.0 0.00 0.00 0.00 66 1002.1
20260504034555 51 283 0.0 0.0 0.00 0.00 0.00 64 1002.0
20260504034056 51 283 0.0 0.0 0.00 0.00 0.00 61 1002.2
20260504033824 52 283 0.0 0.0 0.00 0.00 0.00 59 1002.2
20260504033054 52 283 0.0 0.0 0.00 0.00 0.00 59 1002.3
20260504032555 53 283 0.0 0.0 0.00 0.00 0.00 56 1002.4
20260504032325 53 283 0.0 0.0 0.00 0.00 0.00 54 1002.5
20260504031555 53 283 0.0 0.0 0.00 0.00 0.00 54 1002.7
20260504031054 53 283 0.0 0.0 0.00 0.00 0.00 55 1002.7
20260504030555 54 283 0.0 0.0 0.00 0.00 0.00 58 1002.8
20260504030054 54 283 0.0 0.0 0.00 0.00 0.00 63 1002.8
20260504025554 55 283 0.0 0.0 0.00 0.00 0.00 61 1002.9
20260504025052 55 283 0.0 0.0 0.00 0.00 0.00 61 1002.9
20260504024552 56 283 0.0 0.0 0.00 0.00 0.00 63 1003.0
20260504024054 56 283 0.0 0.0 0.00 0.00 0.00 60 1003.0
20260504023552 56 283 0.0 0.0 0.00 0.00 0.00 55 1003.1
20260504023051 56 283 0.0 0.0 0.00 0.00 0.00 59 1003.1
20260504022554 56 283 0.0 0.0 0.00 0.00 0.00 61 1003.3
20260504022053 57 283 0.0 0.0 0.00 0.00 0.00 61 1003.1
20260504021552 58 283 0.0 0.0 0.00 0.00 0.00 60 1003.1
20260504021053 59 283 0.0 0.0 0.00 0.00 0.00 58 1003.2
20260504020822 59 283 0.0 0.0 0.00 0.00 0.00 54 1003.1
20260504020052 60 283 0.0 0.0 0.00 0.00 0.00 51 1003.0
20260504015551 61 283 0.0 0.0 0.00 0.00 0.00 53 1003.0
20260504015050 62 283 0.0 0.0 0.00 0.00 0.00 53 1003.1
20260504014548 62 283 0.0 0.0 0.00 0.00 0.00 48 1003.1
20260504014048 63 283 0.0 0.0 0.00 0.00 0.00 44 1003.0
20260504013549 64 283 0.0 0.0 0.00 0.00 0.00 36 1003.1
20260504013316 64 283 0.0 0.0 0.00 0.00 0.00 36 1003.1
20260504012547 64 283 0.0 0.0 0.00 0.00 0.00 31 1003.1
20260504012046 65 283 0.0 0.0 0.00 0.00 0.00 29 1003.1
20260504011545 65 283 0.0 0.0 0.00 0.00 0.00 29 1003.2
20260504011044 66 283 0.0 0.0 0.00 0.00 0.00 30 1003.3
20260504010543 66 283 0.0 0.0 0.00 0.00 0.00 29 1003.2
20260504010045 66 283 0.0 0.0 0.00 0.00 0.00 28 1003.3
20260504005815 66 283 0.0 0.9 0.00 0.00 0.00 29 1003.2
20260504005045 67 283 0.9 5.2 0.00 0.00 0.00 29 1003.3
20260504004543 67 283 0.9 5.2 0.00 0.00 0.00 29 1003.4
20260504004313 67 206 0.9 3.5 0.00 0.00 0.00 29 1003.3
20260504003542 67 241 0.9 1.7 0.00 0.00 0.00 28 1003.4
20260504003041 67 241 0.9 1.7 0.00 0.00 0.00 29 1003.5
20260504002813 67 304 0.9 3.5 0.00 0.00 0.00 28 1003.4
20260504002042 68 304 0.9 3.5 0.00 0.00 0.00 28 1003.6
20260504001543 68 298 0.9 2.6 0.00 0.00 0.00 27 1003.4
20260504001313 68 298 0.9 1.7 0.00 0.00 0.00 29 1003.4
20260504000543 68 298 0.9 2.6 0.00 0.00 0.00 31 1003.6
20260504000043 68 298 0.9 4.3 0.00 0.00 0.00 29 1003.5
20260503235542 68 298 0.9 4.3 0.00 0.00 0.00 28 1003.6
20260503235315 69 221 0.9 3.5 0.00 0.00 0.00 28 1003.5
20260503234543 69 291 0.9 2.6 0.00 0.00 0.00 27 1003.5
20260503234043 69 267 0.9 2.6 0.00 0.00 0.00 27 1003.5
20260503233543 69 217 0.9 3.5 0.00 0.00 0.00 27 1003.6
20260503233314 70 213 1.7 6.1 0.00 0.00 0.00 27 1003.5
20260503232542 70 190 1.7 6.1 0.00 0.00 0.00 25 1003.5
20260503232043 70 243 1.7 6.1 0.00 0.00 0.00 24 1003.7
20260503231548 71 286 1.7 5.2 0.00 0.00 0.00 23 1003.7
20260503231541 71 267 1.7 6.1 0.00 0.00 0.00 24 1003.7
20260503231043 71 234 1.7 5.2 0.00 0.00 0.00 24 1003.7
20260503230039 71 248 1.7 5.2 0.00 0.00 0.00 28 1003.7
20260503225545 71 307 1.7 3.5 0.00 0.00 0.00 24 1003.8
20260503225540 71 347 1.7 5.2 0.00 0.00 0.00 27 1003.8
20260503224810 71 306 1.7 3.5 0.00 0.00 0.00 26 1003.9
20260503224039 71 305 1.7 3.5 0.00 0.00 0.00 26 1003.9
20260503223540 70 294 1.7 3.5 0.00 0.00 0.00 24 1003.9
20260503223313 70 246 1.7 6.1 0.00 0.00 0.00 27 1003.9
20260503222813 70 207 1.7 6.1 0.00 0.00 0.00 24 1004.0
20260503222045 70 288 1.7 6.1 0.00 0.00 0.00 24 1004.2
20260503222041 70 269 1.7 3.5 0.00 0.00 0.00 26 1004.1
20260503221540 70 273 1.7 6.1 0.00 0.00 0.00 26 1004.1
20260503220809 70 212 1.7 4.3 0.00 0.00 0.00 27 1004.0
20260503220039 70 192 1.7 6.1 0.00 0.00 0.00 28 1004.1
20260503215539 70 190 1.7 6.1 0.00 0.00 0.00 26 1004.1
20260503215310 70 22 1.7 4.3 0.00 0.00 0.00 25 1004.1
20260503214537 70 56 1.7 3.5 0.00 0.00 0.00 27 1004.3
20260503214043 69 59 2.6 7.0 0.00 0.00 0.00 27 1004.3
20260503214038 69 58 1.7 5.2 0.00 0.00 0.00 28 1004.4
20260503213036 69 0 2.6 7.0 0.00 0.00 0.00 27 1004.5
20260503212535 69 0 3.5 7.0 0.00 0.00 0.00 27 1004.6
20260503212308 69 16 3.5 7.8 0.00 0.00 0.00 26 1004.7
20260503211806 69 20 3.5 9.6 0.00 0.00 0.00 27 1004.9
20260503211035 69 340 2.6 9.6 0.00 0.00 0.00 25 1004.7
20260503210537 70 5 2.6 7.8 0.00 0.00 0.00 27 1004.9
20260503210312 69 5 2.6 9.6 0.00 0.00 0.00 27 1004.9
20260503210306 69 5 3.5 9.6 0.00 0.00 0.00 26 1004.9
20260503205036 70 5 2.6 7.0 0.00 0.00 0.00 26 1005.0
20260503204535 70 338 2.6 5.2 0.00 0.00 0.00 28 1005.0
20260503204035 70 331 2.6 5.2 0.00 0.00 0.00 30 1005.2
20260503203534 70 329 2.6 5.2 0.00 0.00 0.00 27 1005.2
20260503203034 70 244 2.6 7.0 0.00 0.00 0.00 26 1005.1
20260503202533 70 5 2.6 7.0 0.00 0.00 0.00 25 1005.3
20260503202033 70 350 1.7 4.3 0.00 0.00 0.00 27 1005.1
20260503201533 69 31 1.7 4.3 0.00 0.00 0.00 27 1005.4
20260503201034 70 12 2.6 4.3 0.00 0.00 0.00 25 1005.5
20260503200533 70 349 1.7 4.3 0.00 0.00 0.00 27 1005.5
20260503200034 70 342 2.6 5.2 0.00 0.00 0.00 28 1005.5
20260503195539 70 281 1.7 7.0 0.00 0.00 0.00 29 1005.6
20260503195533 70 317 2.6 5.2 0.00 0.00 0.00 28 1005.5
20260503194534 70 271 1.7 7.0 0.00 0.00 0.00 26 1005.6
20260503194310 69 0 2.6 10.4 0.00 0.00 0.00 29 1005.6
20260503194034 69 286 1.7 4.3 0.00 0.00 0.00 29 1005.6
20260503193653 69 30 2.6 10.4 0.00 0.00 0.00 28 1005.7
20260503192531 69 342 2.6 7.0 0.00 0.00 0.00 31 1005.7
20260503192032 69 338 3.5 7.8 0.00 0.00 0.00 29 1005.8
20260503191531 69 26 3.5 7.8 0.00 0.00 0.00 31 1005.8
20260503191032 69 9 3.5 7.0 0.00 0.00 0.00 31 1005.9
20260503190531 69 318 2.6 4.3 0.00 0.00 0.00 30 1005.9
20260503190032 69 325 2.6 6.1 0.00 0.00 0.00 31 1006.0
20260503185533 69 321 2.6 6.1 0.00 0.00 0.00 34 1005.9
20260503185031 68 355 3.5 7.8 0.00 0.00 0.00 32 1005.8
20260503184531 68 5 4.3 8.7 0.00 0.00 0.00 31 1006.0
20260503184031 68 5 4.3 9.6 0.00 0.00 0.00 30 1005.9
20260503183533 68 13 4.3 10.4 0.00 0.00 0.00 30 1006.0
20260503183301 68 343 3.5 10.4 0.00 0.00 0.00 29 1006.0
20260503182531 68 355 3.5 7.8 0.00 0.00 0.00 27 1006.0
20260503182031 68 339 3.5 10.4 0.00 0.00 0.00 31 1006.0
20260503181801 68 338 4.3 10.4 0.00 0.00 0.00 32 1006.1
20260503181031 68 355 3.5 7.8 0.00 0.00 0.00 34 1006.2
20260503180803 68 331 3.5 7.8 0.00 0.00 0.00 34 1006.2
20260503180305 67 355 4.3 10.4 0.00 0.00 0.00 36 1006.2
20260503180030 68 326 2.6 7.8 0.00 0.00 0.00 37 1006.3
20260503175031 67 5 4.3 10.4 0.00 0.00 0.00 32 1006.2
20260503174533 67 32 3.5 9.6 0.00 0.00 0.00 37 1006.2
20260503174031 67 317 3.5 9.6 0.00 0.00 0.00 32 1006.2
20260503173532 68 337 3.5 9.6 0.00 0.00 0.00 36 1006.3
20260503173303 67 317 3.5 10.4 0.00 0.00 0.00 43 1006.3
20260503172529 67 9 5.2 11.3 0.00 0.00 0.00 42 1006.1
20260503172030 67 22 4.3 11.3 0.00 0.00 0.00 37 1006.3
20260503171529 67 0 3.5 7.8 0.00 0.00 0.00 38 1006.3
20260503171030 67 21 2.6 7.8 0.00 0.00 0.00 40 1006.3
20260503170800 67 5 2.6 7.8 0.00 0.00 0.00 42 1006.3